Time,TemperatureF,DewpointF,PressureIn,WindDirection,WindDirectionDegrees,WindSpeedMPH,WindSpeedGustMPH,Humidity,HourlyPrecipIn,Conditions,Clouds,dailyrainin,SoftwareType,DateUTC
2013-02-13 00:00:00,46.9,38.0,0.00,SE,129,0.0,0.0,71,0.00,,---,0.00,VWS V13.01,2013-02-13 05:00:00,
2013-02-13 00:05:00,46.8,38.6,0.00,SW,216,0.0,0.0,73,0.00,,---,0.00,VWS V13.01,2013-02-13 05:05:00,
2013-02-13 00:10:00,46.8,38.9,0.00,SW,216,0.0,0.0,74,0.00,,---,0.00,VWS V13.01,2013-02-13 05:10:00,
2013-02-13 00:15:00,46.6,39.4,0.00,SW,216,0.0,0.0,76,0.00,,---,0.00,VWS V13.01,2013-02-13 05:15:00,
2013-02-13 00:20:00,46.4,39.3,0.00,SW,216,0.0,0.0,76,0.00,,---,0.00,VWS V13.01,2013-02-13 05:20:00,
2013-02-13 00:25:00,46.4,39.6,0.00,SW,216,0.0,0.0,77,0.00,,---,0.00,VWS V13.01,2013-02-13 05:25:00,
2013-02-13 00:30:00,46.2,40.7,0.00,ESE,112,0.0,0.0,81,0.00,,---,0.00,VWS V13.01,2013-02-13 05:30:00,
2013-02-13 00:35:00,46.0,40.5,0.00,ESE,114,0.0,0.0,81,0.04,,---,0.04,VWS V13.01,2013-02-13 05:35:00,
2013-02-13 00:40:00,46.0,40.5,0.00,ESE,114,0.0,0.0,81,0.04,,---,0.04,VWS V13.01,2013-02-13 05:40:00,
2013-02-13 00:45:00,46.0,40.5,0.00,ESE,114,0.0,0.0,81,0.04,,---,0.04,VWS V13.01,2013-02-13 05:45:00,
2013-02-13 00:51:00,46.0,40.5,0.00,ESE,114,0.0,0.0,81,0.04,,---,0.04,VWS V13.01,2013-02-13 05:51:00,
2013-02-13 00:56:00,46.0,40.9,0.00,ESE,114,0.0,0.0,82,0.04,,---,0.04,VWS V13.01,2013-02-13 05:56:00,
2013-02-13 01:01:00,46.0,41.2,0.00,East,88,0.0,0.0,83,0.04,,---,0.04,VWS V13.01,2013-02-13 06:01:00,
2013-02-13 01:06:00,45.9,41.0,0.00,NNW,338,0.0,0.0,83,0.04,,---,0.04,VWS V13.01,2013-02-13 06:06:00,
2013-02-13 01:11:00,45.9,41.6,0.00,NNW,338,0.0,0.0,85,0.04,,---,0.04,VWS V13.01,2013-02-13 06:11:00,
2013-02-13 01:16:00,45.9,41.6,0.00,NNW,338,0.0,0.0,85,0.04,,---,0.04,VWS V13.01,2013-02-13 06:16:00,
2013-02-13 01:21:00,45.9,41.6,0.00,North,11,0.0,0.0,85,0.04,,---,0.04,VWS V13.01,2013-02-13 06:21:00,
2013-02-13 01:26:00,45.7,41.7,0.00,North,11,0.0,0.0,86,0.04,,---,0.04,VWS V13.01,2013-02-13 06:26:00,
2013-02-13 01:31:00,45.7,41.7,0.00,North,11,0.0,0.0,86,0.04,,---,0.04,VWS V13.01,2013-02-13 06:31:00,
2013-02-13 01:36:00,45.7,41.7,0.00,NNE,21,0.0,0.0,86,0.04,,---,0.04,VWS V13.01,2013-02-13 06:36:00,
2013-02-13 01:41:00,45.7,41.7,0.00,NNE,21,0.0,0.0,86,0.00,,---,0.04,VWS V13.01,2013-02-13 06:41:00,
2013-02-13 01:46:00,45.9,41.9,0.00,NNE,21,0.0,0.0,86,0.00,,---,0.04,VWS V13.01,2013-02-13 06:46:00,
2013-02-13 01:51:00,45.9,41.9,0.00,NNE,21,0.0,0.0,86,0.00,,---,0.04,VWS V13.01,2013-02-13 06:51:00,
2013-02-13 01:56:00,45.7,41.7,0.00,NNE,28,0.0,0.0,86,0.00,,---,0.04,VWS V13.01,2013-02-13 06:56:00,
2013-02-13 02:01:00,45.7,41.7,0.00,NNE,28,0.0,0.0,86,0.00,,---,0.04,VWS V13.01,2013-02-13 07:01:00,
2013-02-13 02:06:00,45.7,41.7,0.00,North,0,0.0,0.0,86,0.00,,---,0.04,VWS V13.01,2013-02-13 07:06:00,
2013-02-13 02:11:00,45.7,41.7,0.00,North,0,0.0,0.0,86,0.00,,---,0.04,VWS V13.01,2013-02-13 07:11:00,
2013-02-13 02:16:00,45.7,41.7,0.00,North,0,0.0,0.0,86,0.00,,---,0.04,VWS V13.01,2013-02-13 07:16:00,
2013-02-13 02:21:00,45.7,41.7,0.00,North,0,0.0,0.0,86,0.00,,---,0.04,VWS V13.01,2013-02-13 07:21:00,
2013-02-13 02:26:00,45.7,41.7,0.00,North,0,0.0,0.0,86,0.00,,---,0.04,VWS V13.01,2013-02-13 07:26:00,
2013-02-13 02:31:00,45.7,41.7,0.00,North,0,0.0,0.0,86,0.00,,---,0.04,VWS V13.01,2013-02-13 07:31:00,
2013-02-13 02:36:00,45.7,41.7,0.00,North,0,0.0,0.0,86,0.00,,---,0.04,VWS V13.01,2013-02-13 07:36:00,
2013-02-13 02:41:00,45.7,41.7,0.00,North,0,0.0,0.0,86,0.00,,---,0.04,VWS V13.01,2013-02-13 07:41:00,
2013-02-13 02:46:00,45.7,41.7,0.00,North,0,0.0,0.0,86,0.00,,---,0.04,VWS V13.01,2013-02-13 07:46:00,
2013-02-13 02:51:00,45.7,41.7,0.00,North,0,0.0,0.0,86,0.00,,---,0.04,VWS V13.01,2013-02-13 07:51:00,
2013-02-13 02:56:00,45.9,41.9,0.00,North,0,0.0,0.0,86,0.00,,---,0.04,VWS V13.01,2013-02-13 07:56:00,
2013-02-13 03:01:00,45.7,41.7,0.00,ESE,107,0.0,0.0,86,0.00,,---,0.04,VWS V13.01,2013-02-13 08:01:00,
2013-02-13 03:06:00,45.5,41.6,0.00,ESE,107,0.0,0.0,86,0.00,,---,0.04,VWS V13.01,2013-02-13 08:06:00,
2013-02-13 03:12:00,45.5,41.6,0.00,ESE,107,0.0,0.0,86,0.00,,---,0.04,VWS V13.01,2013-02-13 08:12:00,
2013-02-13 03:17:00,45.5,41.6,0.00,ESE,107,0.0,0.0,86,0.00,,---,0.04,VWS V13.01,2013-02-13 08:17:00,
2013-02-13 03:22:00,45.3,41.4,0.00,ESE,107,0.0,0.0,86,0.00,,---,0.04,VWS V13.01,2013-02-13 08:22:00,
2013-02-13 03:27:00,45.3,41.4,0.00,ESE,107,0.0,0.0,86,0.00,,---,0.04,VWS V13.01,2013-02-13 08:27:00,
2013-02-13 03:32:00,45.3,41.4,0.00,ESE,107,0.0,0.0,86,0.00,,---,0.04,VWS V13.01,2013-02-13 08:32:00,
2013-02-13 03:37:00,45.3,41.4,0.00,ESE,107,0.0,0.0,86,0.00,,---,0.04,VWS V13.01,2013-02-13 08:37:00,
2013-02-13 03:42:00,45.1,41.2,0.00,ESE,107,0.0,0.0,86,0.00,,---,0.04,VWS V13.01,2013-02-13 08:42:00,
2013-02-13 03:47:00,45.1,41.5,0.00,ESE,107,0.0,0.0,87,0.00,,---,0.04,VWS V13.01,2013-02-13 08:47:00,
2013-02-13 03:52:00,45.0,41.3,0.00,ESE,107,0.0,0.0,87,0.00,,---,0.04,VWS V13.01,2013-02-13 08:52:00,
2013-02-13 03:57:00,45.0,41.3,0.00,ESE,107,0.0,0.0,87,0.00,,---,0.04,VWS V13.01,2013-02-13 08:57:00,
2013-02-13 04:02:00,45.0,41.3,0.00,ESE,107,0.0,0.0,87,0.00,,---,0.04,VWS V13.01,2013-02-13 09:02:00,
2013-02-13 04:07:00,44.8,41.2,0.00,ESE,107,0.0,0.0,87,0.00,,---,0.04,VWS V13.01,2013-02-13 09:07:00,
2013-02-13 04:12:00,44.8,41.2,0.00,ESE,107,0.0,0.0,87,0.00,,---,0.04,VWS V13.01,2013-02-13 09:12:00,
2013-02-13 04:17:00,44.6,41.0,0.00,ESE,107,0.0,0.0,87,0.00,,---,0.04,VWS V13.01,2013-02-13 09:17:00,
2013-02-13 04:22:00,44.6,41.0,0.00,ESE,107,0.0,0.0,87,0.00,,---,0.04,VWS V13.01,2013-02-13 09:22:00,
2013-02-13 04:27:00,44.6,41.0,0.00,ESE,107,0.0,0.0,87,0.00,,---,0.04,VWS V13.01,2013-02-13 09:27:00,
2013-02-13 04:32:00,44.6,41.0,0.00,ESE,107,0.0,0.0,87,0.00,,---,0.04,VWS V13.01,2013-02-13 09:32:00,
2013-02-13 04:37:00,44.6,41.0,0.00,ESE,107,0.0,0.0,87,0.00,,---,0.04,VWS V13.01,2013-02-13 09:37:00,
2013-02-13 04:42:00,44.6,41.3,0.00,ESE,107,0.0,0.0,88,0.00,,---,0.04,VWS V13.01,2013-02-13 09:42:00,
2013-02-13 04:47:00,44.6,41.3,0.00,ESE,107,0.0,0.0,88,0.00,,---,0.04,VWS V13.01,2013-02-13 09:47:00,
2013-02-13 04:52:00,44.6,41.3,0.00,ESE,107,0.0,0.0,88,0.00,,---,0.04,VWS V13.01,2013-02-13 09:52:00,
2013-02-13 04:57:00,44.6,41.3,0.00,ESE,107,0.0,0.0,88,0.00,,---,0.04,VWS V13.01,2013-02-13 09:57:00,
2013-02-13 05:02:00,44.6,41.3,0.00,ESE,107,0.0,0.0,88,0.00,,---,0.04,VWS V13.01,2013-02-13 10:02:00,
2013-02-13 05:07:00,44.6,41.3,0.00,ESE,107,0.0,0.0,88,0.00,,---,0.04,VWS V13.01,2013-02-13 10:07:00,
2013-02-13 05:12:00,44.6,41.3,0.00,ESE,107,0.0,0.0,88,0.00,,---,0.04,VWS V13.01,2013-02-13 10:12:00,
2013-02-13 05:17:00,44.4,41.4,0.00,ESE,107,0.0,0.0,89,0.00,,---,0.04,VWS V13.01,2013-02-13 10:17:00,
2013-02-13 05:22:00,44.4,41.4,0.00,NNW,330,0.0,0.0,89,0.00,,---,0.04,VWS V13.01,2013-02-13 10:22:00,
2013-02-13 05:27:00,44.4,41.7,0.00,NNW,330,0.0,0.0,90,0.04,,---,0.08,VWS V13.01,2013-02-13 10:27:00,
2013-02-13 05:32:00,44.4,41.7,0.00,NNW,330,0.0,0.0,90,0.04,,---,0.08,VWS V13.01,2013-02-13 10:32:00,
2013-02-13 05:37:00,44.4,41.7,0.00,NNW,330,0.0,0.0,90,0.04,,---,0.08,VWS V13.01,2013-02-13 10:37:00,
2013-02-13 05:42:00,44.4,41.7,0.00,WNW,283,0.0,0.0,90,0.04,,---,0.08,VWS V13.01,2013-02-13 10:42:00,
2013-02-13 05:47:00,44.4,41.7,0.00,West,274,0.0,3.6,90,0.04,,---,0.08,VWS V13.01,2013-02-13 10:47:00,
2013-02-13 05:52:00,44.2,41.8,0.00,North,10,0.0,3.6,91,0.04,,---,0.08,VWS V13.01,2013-02-13 10:52:00,
2013-02-13 05:57:00,44.2,41.8,0.00,West,270,0.0,4.0,91,0.04,,---,0.08,VWS V13.01,2013-02-13 10:57:00,
2013-02-13 06:02:00,44.2,42.1,0.00,NNW,346,0.0,0.0,92,0.04,,---,0.08,VWS V13.01,2013-02-13 11:02:00,
2013-02-13 06:07:00,44.2,42.1,0.00,NNW,346,0.0,0.0,92,0.08,,---,0.12,VWS V13.01,2013-02-13 11:07:00,
2013-02-13 06:12:00,44.2,42.1,0.00,SE,146,0.0,0.0,92,0.08,,---,0.12,VWS V13.01,2013-02-13 11:12:00,
2013-02-13 06:17:00,44.2,42.1,0.00,SE,124,0.0,0.0,92,0.08,,---,0.12,VWS V13.01,2013-02-13 11:17:00,
2013-02-13 06:22:00,44.2,42.3,0.00,NW,307,0.0,3.6,93,0.08,,---,0.12,VWS V13.01,2013-02-13 11:22:00,
2013-02-13 06:27:00,44.2,42.3,0.00,SE,137,0.0,3.6,93,0.08,,---,0.12,VWS V13.01,2013-02-13 11:27:00,
2013-02-13 06:32:00,44.2,42.3,0.00,NNW,343,0.0,3.6,93,0.08,,---,0.12,VWS V13.01,2013-02-13 11:32:00,
2013-02-13 06:37:00,44.1,42.2,0.00,SSE,157,0.0,3.6,93,0.08,,---,0.12,VWS V13.01,2013-02-13 11:37:00,
2013-02-13 06:42:00,44.1,42.2,0.00,SW,233,0.0,0.0,93,0.04,,---,0.12,VWS V13.01,2013-02-13 11:42:00,
2013-02-13 06:47:00,44.1,42.2,0.00,SW,234,0.0,0.0,93,0.04,,---,0.12,VWS V13.01,2013-02-13 11:47:00,
2013-02-13 06:52:00,44.2,42.3,0.00,WSW,249,0.0,0.0,93,0.04,,---,0.12,VWS V13.01,2013-02-13 11:52:00,
2013-02-13 06:57:00,44.2,42.3,0.00,WSW,249,0.0,0.0,93,0.04,,---,0.12,VWS V13.01,2013-02-13 11:57:00,
2013-02-13 07:02:00,44.2,42.6,0.00,West,280,0.0,0.0,94,0.04,,---,0.12,VWS V13.01,2013-02-13 12:02:00,
2013-02-13 07:07:00,44.2,42.6,0.00,West,280,0.0,0.0,94,0.04,,---,0.12,VWS V13.01,2013-02-13 12:07:00,
2013-02-13 07:12:00,44.1,42.5,0.00,West,280,0.0,0.0,94,0.04,,---,0.12,VWS V13.01,2013-02-13 12:12:00,
2013-02-13 07:17:00,44.1,42.5,0.00,West,280,0.0,0.0,94,0.04,,---,0.12,VWS V13.01,2013-02-13 12:17:00,
2013-02-13 07:22:00,44.1,42.5,0.00,West,280,0.0,0.0,94,0.00,,---,0.12,VWS V13.01,2013-02-13 12:22:00,
2013-02-13 07:27:00,44.1,42.5,0.00,West,280,0.0,0.0,94,0.00,,---,0.12,VWS V13.01,2013-02-13 12:27:00,
2013-02-13 07:32:00,44.1,42.5,0.00,ESE,117,0.0,2.2,94,0.04,,---,0.16,VWS V13.01,2013-02-13 12:32:00,
2013-02-13 07:37:00,44.1,42.5,0.00,ESE,117,0.0,2.2,94,0.04,,---,0.16,VWS V13.01,2013-02-13 12:37:00,
2013-02-13 07:42:00,44.1,42.7,0.00,ESE,117,0.0,0.0,95,0.04,,---,0.16,VWS V13.01,2013-02-13 12:42:00,
2013-02-13 07:47:00,44.1,42.7,0.00,ESE,117,0.0,0.0,95,0.08,,---,0.20,VWS V13.01,2013-02-13 12:47:00,
2013-02-13 07:52:00,44.1,42.7,0.00,ESE,117,0.0,0.0,95,0.08,,---,0.20,VWS V13.01,2013-02-13 12:52:00,
2013-02-13 07:57:00,44.2,42.9,0.00,ESE,117,0.0,0.0,95,0.08,,---,0.20,VWS V13.01,2013-02-13 12:57:00,
2013-02-13 08:02:00,44.2,42.9,0.00,NW,305,0.0,0.0,95,0.08,,---,0.20,VWS V13.01,2013-02-13 13:02:00,
2013-02-13 08:07:00,44.2,42.9,0.00,NW,305,0.0,0.0,95,0.08,,---,0.20,VWS V13.01,2013-02-13 13:07:00,
2013-02-13 08:12:00,44.2,42.9,0.00,NW,307,0.0,0.0,95,0.12,,---,0.24,VWS V13.01,2013-02-13 13:12:00,
2013-02-13 08:17:00,44.2,42.9,0.00,NW,307,0.0,0.0,95,0.12,,---,0.24,VWS V13.01,2013-02-13 13:17:00,
2013-02-13 08:22:00,44.2,42.9,0.00,NW,307,0.0,0.0,95,0.12,,---,0.24,VWS V13.01,2013-02-13 13:22:00,
2013-02-13 08:27:00,44.2,42.9,0.00,NW,307,0.0,0.0,95,0.12,,---,0.24,VWS V13.01,2013-02-13 13:27:00,
2013-02-13 08:32:00,44.2,43.2,0.00,NW,307,0.0,0.0,96,0.12,,---,0.24,VWS V13.01,2013-02-13 13:32:00,
2013-02-13 08:37:00,44.2,43.2,0.00,NW,307,0.0,0.0,96,0.12,,---,0.24,VWS V13.01,2013-02-13 13:37:00,
2013-02-13 08:42:00,44.4,43.3,0.00,NW,307,0.0,0.0,96,0.08,,---,0.24,VWS V13.01,2013-02-13 13:42:00,
2013-02-13 08:47:00,44.6,43.5,0.00,NW,307,0.0,0.0,96,0.08,,---,0.24,VWS V13.01,2013-02-13 13:47:00,
2013-02-13 08:52:00,44.6,43.5,0.00,NW,307,0.0,0.0,96,0.08,,---,0.24,VWS V13.01,2013-02-13 13:52:00,
2013-02-13 08:57:00,44.6,43.5,0.00,NW,307,0.0,0.0,96,0.08,,---,0.24,VWS V13.01,2013-02-13 13:57:00,
2013-02-13 09:02:00,44.8,43.7,0.00,NW,307,0.0,0.0,96,0.04,,---,0.24,VWS V13.01,2013-02-13 14:02:00,
2013-02-13 09:07:00,44.8,43.7,0.00,NW,307,0.0,0.0,96,0.04,,---,0.24,VWS V13.01,2013-02-13 14:07:00,
2013-02-13 09:12:00,44.8,43.7,0.00,NW,307,0.0,0.0,96,0.04,,---,0.24,VWS V13.01,2013-02-13 14:12:00,
2013-02-13 09:17:00,44.8,43.7,0.00,NW,307,0.0,0.0,96,0.04,,---,0.24,VWS V13.01,2013-02-13 14:17:00,
2013-02-13 09:22:00,44.8,43.7,0.00,South,172,2.2,2.7,96,0.00,,---,0.24,VWS V13.01,2013-02-13 14:22:00,
2013-02-13 09:27:00,44.8,43.7,0.00,South,190,0.0,2.7,96,0.00,,---,0.24,VWS V13.01,2013-02-13 14:27:00,
2013-02-13 09:32:00,45.0,43.9,0.00,ESE,122,0.0,2.7,96,0.00,,---,0.24,VWS V13.01,2013-02-13 14:32:00,
2013-02-13 09:37:00,45.0,43.9,0.00,ESE,120,0.0,2.7,96,0.00,,---,0.24,VWS V13.01,2013-02-13 14:37:00,
2013-02-13 09:42:00,45.0,43.9,0.00,East,80,0.0,0.0,96,0.00,,---,0.24,VWS V13.01,2013-02-13 14:42:00,
2013-02-13 09:47:00,45.0,44.2,0.00,ESE,102,0.0,2.2,97,0.00,,---,0.24,VWS V13.01,2013-02-13 14:47:00,
2013-02-13 09:52:00,45.0,44.2,0.00,WSW,248,0.0,4.0,97,0.00,,---,0.24,VWS V13.01,2013-02-13 14:52:00,
2013-02-13 09:57:00,45.1,44.3,0.00,SE,138,0.0,4.0,97,0.00,,---,0.24,VWS V13.01,2013-02-13 14:57:00,
2013-02-13 10:02:00,45.1,44.3,0.00,SSE,157,0.0,0.0,97,0.00,,---,0.24,VWS V13.01,2013-02-13 15:02:00,
2013-02-13 10:07:00,45.1,44.3,0.00,East,87,0.0,0.0,97,0.00,,---,0.24,VWS V13.01,2013-02-13 15:07:00,
2013-02-13 10:12:00,45.1,44.3,0.00,ESE,114,2.7,3.6,97,0.00,,---,0.24,VWS V13.01,2013-02-13 15:12:00,
2013-02-13 10:17:00,45.1,44.3,0.00,SE,130,0.0,4.0,97,0.00,,---,0.24,VWS V13.01,2013-02-13 15:17:00,
2013-02-13 10:22:00,45.1,44.3,0.00,ENE,65,0.0,0.0,97,0.00,,---,0.24,VWS V13.01,2013-02-13 15:22:00,
2013-02-13 10:27:00,45.1,44.3,0.00,WSW,251,0.0,0.0,97,0.00,,---,0.24,VWS V13.01,2013-02-13 15:27:00,
2013-02-13 10:32:00,45.1,44.3,0.00,SSW,196,0.0,2.7,97,0.00,,---,0.24,VWS V13.01,2013-02-13 15:32:00,
2013-02-13 10:37:00,45.1,44.3,0.00,SE,140,0.0,3.6,97,0.00,,---,0.24,VWS V13.01,2013-02-13 15:37:00,
2013-02-13 10:41:00,45.3,44.5,0.00,NNW,343,0.0,0.0,97,0.00,,---,0.24,VWS V13.01,2013-02-13 15:41:00,
2013-02-13 10:46:00,45.3,44.5,0.00,SW,225,0.0,3.6,97,0.00,,---,0.24,VWS V13.01,2013-02-13 15:46:00,
2013-02-13 10:51:00,45.5,44.7,0.00,SW,230,2.7,3.6,97,0.00,,---,0.24,VWS V13.01,2013-02-13 15:51:00,
2013-02-13 10:56:00,45.5,44.7,0.00,South,185,0.0,3.6,97,0.00,,---,0.24,VWS V13.01,2013-02-13 15:56:00,
2013-02-13 11:01:00,45.5,44.7,0.00,SE,135,0.0,4.0,97,0.00,,---,0.24,VWS V13.01,2013-02-13 16:01:00,
2013-02-13 11:06:00,45.5,44.7,0.00,SW,230,0.0,4.0,97,0.00,,---,0.24,VWS V13.01,2013-02-13 16:06:00,
2013-02-13 11:12:00,45.5,44.7,0.00,ESE,123,0.0,4.0,97,0.00,,---,0.24,VWS V13.01,2013-02-13 16:12:00,
2013-02-13 11:17:00,45.5,44.7,0.00,SW,217,0.0,4.0,97,0.00,,---,0.24,VWS V13.01,2013-02-13 16:17:00,
2013-02-13 11:22:00,45.7,44.9,0.00,South,182,0.0,0.0,97,0.00,,---,0.24,VWS V13.01,2013-02-13 16:22:00,
2013-02-13 11:27:00,45.7,44.9,0.00,SE,124,0.0,0.0,97,0.00,,---,0.24,VWS V13.01,2013-02-13 16:27:00,
2013-02-13 11:32:00,45.7,44.9,0.00,NNE,28,0.0,0.0,97,0.00,,---,0.24,VWS V13.01,2013-02-13 16:32:00,
2013-02-13 11:37:00,45.7,44.9,0.00,NE,37,0.0,0.0,97,0.00,,---,0.24,VWS V13.01,2013-02-13 16:37:00,
2013-02-13 11:42:00,45.5,44.7,0.00,SSE,150,0.0,0.0,97,0.00,,---,0.24,VWS V13.01,2013-02-13 16:42:00,
2013-02-13 11:47:00,45.7,44.9,0.00,SSE,150,0.0,0.0,97,0.00,,---,0.24,VWS V13.01,2013-02-13 16:47:00,
2013-02-13 11:52:00,45.9,44.8,0.00,SE,139,0.0,2.7,96,0.08,,---,0.31,VWS V13.01,2013-02-13 16:52:00,
2013-02-13 11:57:00,45.9,44.8,0.00,South,187,0.0,2.7,96,0.08,,---,0.31,VWS V13.01,2013-02-13 16:57:00,
2013-02-13 12:02:00,45.9,44.8,0.00,SE,126,0.0,0.0,96,0.08,,---,0.31,VWS V13.01,2013-02-13 17:02:00,
2013-02-13 12:07:00,46.0,45.0,0.00,ESE,103,0.0,0.0,96,0.08,,---,0.31,VWS V13.01,2013-02-13 17:07:00,
2013-02-13 12:12:00,46.0,45.0,0.00,East,100,0.0,0.0,96,0.08,,---,0.31,VWS V13.01,2013-02-13 17:12:00,
2013-02-13 12:17:00,45.9,44.8,0.00,ENE,69,0.0,0.0,96,0.08,,---,0.31,VWS V13.01,2013-02-13 17:17:00,
2013-02-13 12:22:00,45.9,44.8,0.00,ENE,77,2.2,2.2,96,0.08,,---,0.31,VWS V13.01,2013-02-13 17:22:00,
2013-02-13 12:27:00,46.0,45.0,0.00,ENE,62,0.0,2.2,96,0.08,,---,0.31,VWS V13.01,2013-02-13 17:27:00,
2013-02-13 12:32:00,46.2,45.2,0.00,SE,133,0.0,2.2,96,0.08,,---,0.31,VWS V13.01,2013-02-13 17:32:00,
2013-02-13 12:37:00,46.0,45.0,0.00,ESE,107,0.0,2.2,96,0.08,,---,0.31,VWS V13.01,2013-02-13 17:37:00,
2013-02-13 12:42:00,46.0,45.0,0.00,NE,49,0.0,0.0,96,0.08,,---,0.31,VWS V13.01,2013-02-13 17:42:00,
2013-02-13 12:47:00,46.0,45.0,0.00,NE,36,0.0,0.0,96,0.08,,---,0.31,VWS V13.01,2013-02-13 17:47:00,
2013-02-13 12:52:00,46.2,45.2,0.00,East,98,0.0,2.7,96,0.08,,---,0.31,VWS V13.01,2013-02-13 17:52:00,
2013-02-13 12:57:00,46.2,45.2,0.00,ENE,74,0.0,2.7,96,0.08,,---,0.31,VWS V13.01,2013-02-13 17:57:00,
2013-02-13 13:02:00,46.2,45.2,0.00,East,88,0.0,0.0,96,0.00,,---,0.31,VWS V13.01,2013-02-13 18:02:00,
2013-02-13 13:07:00,46.0,45.0,0.00,East,88,0.0,0.0,96,0.00,,---,0.31,VWS V13.01,2013-02-13 18:07:00,
2013-02-13 13:12:00,46.2,45.2,0.00,East,88,0.0,0.0,96,0.00,,---,0.31,VWS V13.01,2013-02-13 18:12:00,
2013-02-13 13:17:00,46.2,45.2,0.00,East,97,0.0,0.0,96,0.00,,---,0.31,VWS V13.01,2013-02-13 18:17:00,
2013-02-13 13:22:00,46.2,45.2,0.00,ESE,111,0.0,0.0,96,0.00,,---,0.31,VWS V13.01,2013-02-13 18:22:00,
2013-02-13 13:27:00,46.4,45.3,0.00,ESE,111,0.0,0.0,96,0.00,,---,0.31,VWS V13.01,2013-02-13 18:27:00,
2013-02-13 13:32:00,46.4,45.3,0.00,WSW,251,0.0,2.7,96,0.00,,---,0.31,VWS V13.01,2013-02-13 18:32:00,
2013-02-13 13:37:00,46.6,45.2,0.00,SW,236,0.0,2.7,95,0.00,,---,0.31,VWS V13.01,2013-02-13 18:37:00,
2013-02-13 13:42:00,46.6,45.2,0.00,WSW,237,0.0,0.0,95,0.00,,---,0.31,VWS V13.01,2013-02-13 18:42:00,
2013-02-13 13:47:00,46.6,45.2,0.00,ESE,118,0.0,0.0,95,0.00,,---,0.31,VWS V13.01,2013-02-13 18:47:00,
2013-02-13 13:52:00,46.6,45.2,0.00,SSW,210,0.0,0.0,95,0.00,,---,0.31,VWS V13.01,2013-02-13 18:52:00,
2013-02-13 13:57:00,46.8,45.4,0.00,SW,225,0.0,0.0,95,0.00,,---,0.31,VWS V13.01,2013-02-13 18:57:00,
2013-02-13 14:02:00,46.9,45.9,0.00,SSW,202,0.0,0.0,96,0.00,,---,0.31,VWS V13.01,2013-02-13 19:02:00,
2013-02-13 14:07:00,47.1,46.0,0.00,SSW,196,0.0,0.0,96,0.00,,---,0.31,VWS V13.01,2013-02-13 19:07:00,
2013-02-13 14:12:00,47.1,46.0,0.00,SW,234,0.0,0.0,96,0.00,,---,0.31,VWS V13.01,2013-02-13 19:12:00,
2013-02-13 14:17:00,46.9,45.6,0.00,South,177,0.0,0.0,95,0.00,,---,0.31,VWS V13.01,2013-02-13 19:17:00,
2013-02-13 14:22:00,46.8,45.4,0.00,WSW,237,0.0,0.0,95,0.00,,---,0.31,VWS V13.01,2013-02-13 19:22:00,
2013-02-13 14:27:00,46.8,45.4,0.00,SSE,166,0.0,0.0,95,0.00,,---,0.31,VWS V13.01,2013-02-13 19:27:00,
2013-02-13 14:32:00,46.9,45.6,0.00,SSE,153,0.0,0.0,95,0.00,,---,0.31,VWS V13.01,2013-02-13 19:32:00,
2013-02-13 14:37:00,46.9,45.6,0.00,South,177,0.0,0.0,95,0.00,,---,0.31,VWS V13.01,2013-02-13 19:37:00,
2013-02-13 14:42:00,46.9,45.6,0.00,West,263,0.0,2.2,95,0.00,,---,0.31,VWS V13.01,2013-02-13 19:42:00,
2013-02-13 14:47:00,46.8,45.4,0.00,WSW,245,0.0,2.7,95,0.00,,---,0.31,VWS V13.01,2013-02-13 19:47:00,
2013-02-13 14:52:00,46.8,45.4,0.00,SW,226,0.0,2.7,95,0.00,,---,0.31,VWS V13.01,2013-02-13 19:52:00,
2013-02-13 14:57:00,46.9,45.6,0.00,SSW,196,3.1,3.6,95,0.00,,---,0.31,VWS V13.01,2013-02-13 19:57:00,
2013-02-13 15:02:00,46.9,45.6,0.00,SW,225,0.0,3.1,95,0.00,,---,0.31,VWS V13.01,2013-02-13 20:02:00,
2013-02-13 15:07:00,46.9,45.6,0.00,WSW,252,0.0,3.1,95,0.00,,---,0.31,VWS V13.01,2013-02-13 20:07:00,
2013-02-13 15:12:00,47.1,45.8,0.00,WSW,252,0.0,3.1,95,0.00,,---,0.31,VWS V13.01,2013-02-13 20:12:00,
2013-02-13 15:17:00,47.1,45.8,0.00,SW,232,0.0,3.1,95,0.00,,---,0.31,VWS V13.01,2013-02-13 20:17:00,
2013-02-13 15:22:00,46.9,45.6,0.00,SW,225,0.0,2.2,95,0.00,,---,0.31,VWS V13.01,2013-02-13 20:22:00,
2013-02-13 15:27:00,46.9,45.6,0.00,SE,129,0.0,4.9,95,0.00,,---,0.31,VWS V13.01,2013-02-13 20:27:00,
2013-02-13 15:32:00,46.9,45.6,0.00,WSW,244,0.0,5.4,95,0.00,,---,0.31,VWS V13.01,2013-02-13 20:32:00,
2013-02-13 15:37:00,46.9,45.6,0.00,West,278,0.0,5.4,95,0.00,,---,0.31,VWS V13.01,2013-02-13 20:37:00,
2013-02-13 15:42:00,46.8,45.4,0.00,WNW,283,0.0,0.0,95,0.00,,---,0.31,VWS V13.01,2013-02-13 20:42:00,
2013-02-13 15:47:00,46.8,45.4,0.00,WNW,286,0.0,0.0,95,0.00,,---,0.31,VWS V13.01,2013-02-13 20:47:00,
2013-02-13 15:52:00,46.8,45.4,0.00,WNW,300,0.0,0.0,95,0.00,,---,0.31,VWS V13.01,2013-02-13 20:52:00,
2013-02-13 15:57:00,46.8,45.4,0.00,WSW,249,0.0,0.0,95,0.00,,---,0.31,VWS V13.01,2013-02-13 20:57:00,
2013-02-13 16:02:00,46.8,45.4,0.00,WSW,238,0.0,0.0,95,0.00,,---,0.31,VWS V13.01,2013-02-13 21:02:00,
2013-02-13 16:07:00,46.8,45.4,0.00,WNW,298,0.0,0.0,95,0.00,,---,0.31,VWS V13.01,2013-02-13 21:07:00,
2013-02-13 16:12:00,46.6,45.2,0.00,NW,313,0.0,0.0,95,0.00,,---,0.31,VWS V13.01,2013-02-13 21:12:00,
2013-02-13 16:17:00,46.6,45.2,0.00,NW,313,0.0,0.0,95,0.00,,---,0.31,VWS V13.01,2013-02-13 21:17:00,
2013-02-13 16:22:00,46.6,45.2,0.00,NW,313,0.0,0.0,95,0.00,,---,0.31,VWS V13.01,2013-02-13 21:22:00,
2013-02-13 16:27:00,46.6,45.2,0.00,NW,313,0.0,0.0,95,0.00,,---,0.31,VWS V13.01,2013-02-13 21:27:00,
2013-02-13 16:32:00,46.6,45.2,0.00,WSW,247,0.0,0.0,95,0.00,,---,0.31,VWS V13.01,2013-02-13 21:32:00,
2013-02-13 16:37:00,46.6,45.2,0.00,WNW,296,0.0,0.0,95,0.00,,---,0.31,VWS V13.01,2013-02-13 21:37:00,
2013-02-13 16:42:00,46.6,45.5,0.00,WNW,292,0.0,3.6,96,0.00,,---,0.31,VWS V13.01,2013-02-13 21:42:00,
2013-02-13 16:47:00,46.6,45.5,0.00,SW,216,3.1,3.6,96,0.00,,---,0.31,VWS V13.01,2013-02-13 21:47:00,
2013-02-13 16:52:00,46.6,45.5,0.00,SSE,164,0.0,3.6,96,0.00,,---,0.31,VWS V13.01,2013-02-13 21:52:00,
2013-02-13 16:57:00,46.8,45.7,0.00,WSW,237,0.0,3.6,96,0.00,,---,0.31,VWS V13.01,2013-02-13 21:57:00,
2013-02-13 17:02:00,46.8,45.7,0.00,West,281,0.0,0.0,96,0.00,,---,0.31,VWS V13.01,2013-02-13 22:02:00,
2013-02-13 17:07:00,46.8,45.7,0.00,WSW,247,0.0,0.0,96,0.00,,---,0.31,VWS V13.01,2013-02-13 22:07:00,
2013-02-13 17:12:00,46.8,45.7,0.00,SW,219,0.0,3.1,96,0.00,,---,0.31,VWS V13.01,2013-02-13 22:12:00,
2013-02-13 17:17:00,46.8,45.7,0.00,SSW,205,0.0,3.1,96,0.00,,---,0.31,VWS V13.01,2013-02-13 22:17:00,
2013-02-13 17:22:00,46.8,45.7,0.00,West,272,0.0,3.1,96,0.00,,---,0.31,VWS V13.01,2013-02-13 22:22:00,
2013-02-13 17:27:00,46.8,45.7,0.00,SW,236,0.0,3.1,96,0.00,,---,0.31,VWS V13.01,2013-02-13 22:27:00,
2013-02-13 17:32:00,46.8,45.7,0.00,South,171,0.0,3.1,96,0.00,,---,0.31,VWS V13.01,2013-02-13 22:32:00,
2013-02-13 17:37:00,46.8,45.7,0.00,WSW,245,2.2,3.1,96,0.00,,---,0.31,VWS V13.01,2013-02-13 22:37:00,
2013-02-13 17:42:00,46.8,45.7,0.00,WNW,301,0.0,0.0,96,0.00,,---,0.31,VWS V13.01,2013-02-13 22:42:00,
2013-02-13 17:47:00,46.6,45.5,0.00,NW,320,0.0,0.0,96,0.00,,---,0.31,VWS V13.01,2013-02-13 22:47:00,
2013-02-13 17:52:00,46.6,45.5,0.00,NW,320,0.0,0.0,96,0.00,,---,0.31,VWS V13.01,2013-02-13 22:52:00,
2013-02-13 17:57:00,46.6,45.5,0.00,West,268,0.0,0.0,96,0.00,,---,0.31,VWS V13.01,2013-02-13 22:57:00,
2013-02-13 18:02:00,46.6,45.5,0.00,SSW,203,0.0,2.7,96,0.00,,---,0.31,VWS V13.01,2013-02-13 23:02:00,
2013-02-13 18:07:00,46.4,45.3,0.00,WSW,256,0.0,3.6,96,0.00,,---,0.31,VWS V13.01,2013-02-13 23:07:00,
2013-02-13 18:12:00,46.4,45.3,0.00,WNW,283,0.0,3.6,96,0.00,,---,0.31,VWS V13.01,2013-02-13 23:12:00,
2013-02-13 18:17:00,46.2,45.4,0.00,WSW,249,3.6,3.6,97,0.00,,---,0.31,VWS V13.01,2013-02-13 23:17:00,
2013-02-13 18:22:00,46.0,45.2,0.00,SW,232,0.0,0.0,97,0.00,,---,0.31,VWS V13.01,2013-02-13 23:22:00,
2013-02-13 18:27:00,46.0,45.2,0.00,ESE,121,0.0,0.0,97,0.00,,---,0.31,VWS V13.01,2013-02-13 23:27:00,
2013-02-13 18:32:00,45.9,45.1,0.00,WSW,250,4.0,4.0,97,0.00,,---,0.31,VWS V13.01,2013-02-13 23:32:00,
2013-02-13 18:37:00,46.0,45.2,0.00,SSE,149,4.0,4.0,97,0.00,,---,0.31,VWS V13.01,2013-02-13 23:37:00,
2013-02-13 18:42:00,46.0,45.2,0.00,WSW,246,0.0,0.0,97,0.00,,---,0.31,VWS V13.01,2013-02-13 23:42:00,
2013-02-13 18:47:00,46.2,45.4,0.00,West,259,0.0,2.7,97,0.00,,---,0.31,VWS V13.01,2013-02-13 23:47:00,
2013-02-13 18:52:00,46.2,45.4,0.00,SW,231,0.0,2.7,97,0.00,,---,0.31,VWS V13.01,2013-02-13 23:52:00,
2013-02-13 18:57:00,46.2,45.4,0.00,WNW,301,0.0,3.1,97,0.00,,---,0.31,VWS V13.01,2013-02-13 23:57:00,
2013-02-13 19:03:00,46.2,45.7,0.00,North,350,0.0,3.6,98,0.00,,---,0.31,VWS V13.01,2013-02-14 00:03:00,
2013-02-13 19:08:00,46.2,45.7,0.00,NW,316,0.0,3.6,98,0.00,,---,0.31,VWS V13.01,2013-02-14 00:08:00,
2013-02-13 19:13:00,46.2,45.7,0.00,WNW,288,0.0,3.6,98,0.00,,---,0.31,VWS V13.01,2013-02-14 00:13:00,
2013-02-13 19:18:00,46.2,45.7,0.00,West,278,2.2,3.6,98,0.00,,---,0.31,VWS V13.01,2013-02-14 00:18:00,
2013-02-13 19:23:00,46.2,45.7,0.00,SSW,211,5.4,5.4,98,0.00,,---,0.31,VWS V13.01,2013-02-14 00:23:00,
2013-02-13 19:28:00,46.2,45.7,0.00,WSW,246,0.0,5.4,98,0.00,,---,0.31,VWS V13.01,2013-02-14 00:28:00,
2013-02-13 19:33:00,46.0,45.5,0.00,West,266,2.7,5.4,98,0.00,,---,0.31,VWS V13.01,2013-02-14 00:33:00,
2013-02-13 19:38:00,46.0,45.5,0.00,NW,312,0.0,5.4,98,0.00,,---,0.31,VWS V13.01,2013-02-14 00:38:00,
2013-02-13 19:43:00,45.9,45.3,0.00,NNW,330,0.0,3.6,98,0.00,,---,0.31,VWS V13.01,2013-02-14 00:43:00,
2013-02-13 19:48:00,45.9,45.3,0.00,NNW,330,0.0,3.6,98,0.00,,---,0.31,VWS V13.01,2013-02-14 00:48:00,
2013-02-13 19:53:00,45.7,45.2,0.00,NNW,337,0.0,3.6,98,0.00,,---,0.31,VWS V13.01,2013-02-14 00:53:00,
2013-02-13 19:58:00,45.7,45.2,0.00,NNW,329,2.7,3.6,98,0.00,,---,0.31,VWS V13.01,2013-02-14 00:58:00,
2013-02-13 20:03:00,45.5,45.0,0.00,NNW,329,0.0,0.0,98,0.00,,---,0.31,VWS V13.01,2013-02-14 01:03:00,
2013-02-13 20:08:00,45.5,45.0,0.00,NNW,328,0.0,0.0,98,0.00,,---,0.31,VWS V13.01,2013-02-14 01:08:00,
2013-02-13 20:13:00,45.3,44.8,0.00,North,357,0.0,0.0,98,0.00,,---,0.31,VWS V13.01,2013-02-14 01:13:00,
2013-02-13 20:18:00,45.3,44.8,0.00,NNE,23,0.0,0.0,98,0.00,,---,0.31,VWS V13.01,2013-02-14 01:18:00,
2013-02-13 20:23:00,45.1,44.6,0.00,North,357,0.0,4.9,98,0.00,,---,0.31,VWS V13.01,2013-02-14 01:23:00,
2013-02-13 20:28:00,44.8,44.0,0.00,North,11,5.4,6.3,97,0.00,,---,0.31,VWS V13.01,2013-02-14 01:28:00,
2013-02-13 20:33:00,44.2,42.9,0.00,North,353,3.1,10.5,95,0.00,,---,0.31,VWS V13.01,2013-02-14 01:33:00,
2013-02-13 20:38:00,43.5,39.9,0.00,NNW,327,8.1,10.5,87,0.00,,---,0.31,VWS V13.01,2013-02-14 01:38:00,
2013-02-13 20:43:00,43.3,37.9,0.00,North,0,2.7,6.7,81,0.00,,---,0.31,VWS V13.01,2013-02-14 01:43:00,
2013-02-13 20:48:00,42.8,32.6,0.00,NNW,335,7.6,8.3,67,0.00,,---,0.31,VWS V13.01,2013-02-14 01:48:00,
2013-02-13 20:53:00,43.0,32.0,0.00,North,0,4.0,10.5,65,0.00,,---,0.31,VWS V13.01,2013-02-14 01:53:00,
2013-02-13 20:58:00,42.8,31.5,0.00,NNW,339,7.6,10.5,64,0.00,,---,0.31,VWS V13.01,2013-02-14 01:58:00,
2013-02-13 21:03:00,42.6,30.9,0.00,NNW,348,8.1,8.1,63,0.00,,---,0.31,VWS V13.01,2013-02-14 02:03:00,
2013-02-13 21:08:00,42.4,30.8,0.00,NNW,339,5.8,8.7,63,0.00,,---,0.31,VWS V13.01,2013-02-14 02:08:00,
2013-02-13 21:13:00,42.3,30.2,0.00,NW,324,4.0,8.7,62,0.00,,---,0.31,VWS V13.01,2013-02-14 02:13:00,
2013-02-13 21:18:00,42.3,30.6,0.00,North,349,3.6,8.7,63,0.00,,---,0.31,VWS V13.01,2013-02-14 02:18:00,
2013-02-13 21:23:00,42.1,30.4,0.00,NW,324,2.7,4.0,63,0.00,,---,0.31,VWS V13.01,2013-02-14 02:23:00,
2013-02-13 21:28:00,41.9,30.6,0.00,NNW,330,2.2,4.0,64,0.00,,---,0.31,VWS V13.01,2013-02-14 02:28:00,
2013-02-13 21:33:00,41.7,30.8,0.00,NW,307,0.0,4.0,65,0.00,,---,0.31,VWS V13.01,2013-02-14 02:33:00,
2013-02-13 21:39:00,41.4,30.9,0.00,WNW,283,0.0,4.0,66,0.00,,---,0.31,VWS V13.01,2013-02-14 02:39:00,
2013-02-13 21:44:00,41.0,31.3,0.00,WSW,237,0.0,3.6,68,0.00,,---,0.31,VWS V13.01,2013-02-14 02:44:00,
2013-02-13 21:49:00,40.6,31.3,0.00,SSE,148,0.0,3.6,69,0.00,,---,0.31,VWS V13.01,2013-02-14 02:49:00,
2013-02-13 21:54:00,40.3,31.3,0.00,SE,144,0.0,3.6,70,0.00,,---,0.31,VWS V13.01,2013-02-14 02:54:00,
2013-02-13 21:59:00,40.1,31.5,0.00,WSW,245,0.0,3.6,71,0.00,,---,0.31,VWS V13.01,2013-02-14 02:59:00,
2013-02-13 22:04:00,39.9,31.6,0.00,North,357,3.6,4.0,72,0.00,,---,0.31,VWS V13.01,2013-02-14 03:04:00,
2013-02-13 22:09:00,39.7,31.5,0.00,NW,306,3.6,4.0,72,0.00,,---,0.31,VWS V13.01,2013-02-14 03:09:00,
2013-02-13 22:14:00,39.7,31.5,0.00,NNW,337,3.1,5.4,72,0.00,,---,0.31,VWS V13.01,2013-02-14 03:14:00,
2013-02-13 22:19:00,39.9,31.3,0.00,NNW,330,3.6,6.3,71,0.00,,---,0.31,VWS V13.01,2013-02-14 03:19:00,
2013-02-13 22:24:00,40.1,30.8,0.00,NNW,331,5.8,5.8,69,0.00,,---,0.31,VWS V13.01,2013-02-14 03:24:00,
2013-02-13 22:29:00,40.3,30.2,0.00,NNW,337,5.4,7.6,67,0.00,,---,0.31,VWS V13.01,2013-02-14 03:29:00,
2013-02-13 22:34:00,40.3,29.8,0.00,NW,325,3.6,7.6,66,0.00,,---,0.31,VWS V13.01,2013-02-14 03:34:00,
2013-02-13 22:39:00,40.3,29.8,0.00,NNW,329,2.7,7.6,66,0.00,,---,0.31,VWS V13.01,2013-02-14 03:39:00,
2013-02-13 22:44:00,40.3,29.8,0.00,NNW,329,0.0,3.6,66,0.00,,---,0.31,VWS V13.01,2013-02-14 03:44:00,
2013-02-13 22:49:00,39.9,29.5,0.00,NNW,329,0.0,3.6,66,0.00,,---,0.31,VWS V13.01,2013-02-14 03:49:00,
2013-02-13 22:54:00,39.7,29.7,0.00,NNW,329,0.0,3.6,67,0.00,,---,0.31,VWS V13.01,2013-02-14 03:54:00,
2013-02-13 22:59:00,39.2,29.5,0.00,NNW,329,0.0,3.6,68,0.00,,---,0.31,VWS V13.01,2013-02-14 03:59:00,
2013-02-13 23:04:00,38.8,29.5,0.00,NNW,329,0.0,0.0,69,0.00,,---,0.31,VWS V13.01,2013-02-14 04:04:00,
2013-02-13 23:09:00,38.5,29.6,0.00,NNW,329,0.0,0.0,70,0.00,,---,0.31,VWS V13.01,2013-02-14 04:09:00,
2013-02-13 23:14:00,38.1,29.9,0.00,NNW,329,0.0,0.0,72,0.00,,---,0.31,VWS V13.01,2013-02-14 04:14:00,
2013-02-13 23:19:00,37.9,29.7,0.00,NNW,329,0.0,0.0,72,0.00,,---,0.31,VWS V13.01,2013-02-14 04:19:00,
2013-02-13 23:24:00,37.6,29.7,0.00,NNW,329,0.0,0.0,73,0.00,,---,0.31,VWS V13.01,2013-02-14 04:24:00,
2013-02-13 23:29:00,37.6,30.1,0.00,NNW,329,0.0,0.0,74,0.00,,---,0.31,VWS V13.01,2013-02-14 04:29:00,
2013-02-13 23:34:00,37.2,30.0,0.00,NNW,329,0.0,0.0,75,0.00,,---,0.31,VWS V13.01,2013-02-14 04:34:00,
2013-02-13 23:39:00,36.9,29.7,0.00,NNW,329,0.0,0.0,75,0.00,,---,0.31,VWS V13.01,2013-02-14 04:39:00,
2013-02-13 23:44:00,36.7,29.8,0.00,NNW,329,0.0,0.0,76,0.00,,---,0.31,VWS V13.01,2013-02-14 04:44:00,
2013-02-13 23:49:00,36.7,29.8,0.00,NNW,329,3.6,3.6,76,0.00,,---,0.31,VWS V13.01,2013-02-14 04:49:00,
2013-02-13 23:54:00,36.3,29.8,0.00,NNW,329,0.0,4.0,77,0.00,,---,0.31,VWS V13.01,2013-02-14 04:54:00,
2013-02-13 23:59:00,36.0,29.5,0.00,NNW,329,2.7,4.0,77,0.00,,---,0.31,VWS V13.01,2013-02-14 04:59:00,